Location: *
(44.9308°N, 123.0197°W)
Time: 04:47:57
(UTC+00:00)

STARLINK-42 - Pass Details

Date: 09 April 2020
Orbit: 391 x 394 km, 53.0° (Epoch: 25 May)

Event Time Altitude Azimuth Distance (km) Brightness Sun altitude
Exits shadow 11:22:14 19° 342° (NNW) 1,020 5.2 -22.4°
Drops below altitude 10° 11:26:00 10° 68° (ENE) 1,437 6.8 -21.8°
Enters shadow 12:24:15 -66° 291° (WNW) 12,059 10.4 -13.0°
Maximum altitude 12:59:52 80° 31° (NNE) 406 3.1 -7.2°
